Regional Weather Roundup
Issued by NWS

Home | Current Version | Previous Version | Text Only | Print | Product List | Glossary Off
Versions: 1 2 3 4 5 6 7 8 9 10 11 12 13 14 15 16 17 18 19 20 21 22 23 24 25 26 27 28 29 30 31 32 33 34 35 36 37 38 39 40 41 42 43 44 45 46 47 48 49 50

000
ASUS43 KIND 241009
RWRIN

WEATHER ROUNDUP FOR INDIANA
NATIONAL WEATHER SERVICE INDIANAPOLIS IN
600 AM EDT TUE OCT 24 2017

NOTE: "FAIR" INDICATES FEW OR NO CLOUDS BELOW 12,000 FEET WITH NO
SIGNIFICANT WEATHER AND/OR OBSTRUCTIONS TO VISIBILITY.

* - STATION DOES NOT REPORT WEATHER SUCH AS PRECIPITATION OR FOG.

+ - STATION NOT QUALITY CONTROLLED BY THE NATIONAL WEATHER SERVICE.
    USE DATA WITH CAUTION...ESPECIALLY DEWPOINT AND RELATIVE
    HUMIDITY OBSERVATIONS.

INZ001>003-010>013-019-020-241100-
NORTHWEST INDIANA

CITY           SKY/WX    TMP DP  RH WIND       PRES   REMARKS
GARY /AIRPORT/ LGT RAIN  48  46  93 SW12      29.54F
KNOX *+        CLOUDY    46  45  93 W14G20    29.55R
LA PORTE +     CLOUDY    47  46  93 W13G20    29.53S
MICHIGAN CITY+ DRIZZLE   46  46 100 SW12      29.53S
MONTICELLO +   CLOUDY    46  43  92 SW12G17   29.59S
RENSSELAER +   CLOUDY    46  41  81 SW12      29.59R
VALPARAISO     LGT RAIN  48  46  93 SW12      29.55S

$$

LMZ046-743>745-241100-
SOUTHERN LAKE MICHIGAN

STATION/POSITION TIME  TEMP    WIND        PRES    WAVE
                       AIR SEA DIR/SP/G            HT
                 (UTC) (F)     (DEG/KT/KT) (MB)    (FT)
BURNS HARBOR     0940   49     230/ 16/ 21 1000.7S
MICHIGAN CITY    0940   49     210/ 18/ 22   N/A
5NW MICH CITY    1000   50 57  250/ 17/ 23   N/A     5

$$

INZ004-005-014>016-021>024-241100-
NORTH CENTRAL INDIANA

CITY           SKY/WX    TMP DP  RH WIND       PRES   REMARKS
GOSHEN         CLOUDY    49  45  86 SW12      29.52S
LOGANSPORT +   CLOUDY    46  43  87 W16       29.60R
PERU/GRISSOM   CLOUDY    48  48 100 W21       29.58R
SOUTH BEND     LGT RAIN  48  48 100 SW14      29.52S
WARSAW +       CLOUDY    46  46 100 SW8       29.54S

$$

INZ006>009-017-018-025>027-241100-
NORTHEAST INDIANA

CITY           SKY/WX    TMP DP  RH WIND       PRES   REMARKS
AUBURN +       DRIZZLE   50  45  81 SW5       29.54F
FORT WAYNE     CLOUDY    49  47  93 SW9       29.56R
HUNTINGTON +   CLOUDY    49  47  96 W9        29.56S
KENDALLVILLE + CLOUDY    49  47  93 SW12G17   29.53S

$$

INZ028-029-035-036-043>045-051>053-241100-
WEST CENTRAL INDIANA

CITY           SKY/WX    TMP DP  RH WIND       PRES   REMARKS
GREENCASTLE +  CLOUDY    46  43  87 W6        29.67S
LAFAYETTE      MOCLDY    46  43  89 SW9       29.62R
TERRE HAUTE    MOCLDY    47  42  83 W9        29.69S

$$

INZ030>032-037>040-046>048-054>057-064-065-241100-
CENTRAL INDIANA

CITY           SKY/WX    TMP DP  RH WIND       PRES   REMARKS
CP ATTERBURY + CLOUDY    46  45  93 SW5       29.68S
FISHERS *+     CLOUDY    46  46 100 W8        29.64S
FRANKFORT +    CLOUDY    49  45  88 W14G21    29.63S
GREENWOOD *+   CLOUDY    51  47  89 W7        29.66R
INDIANAPOLIS   MOCLDY    48  45  89 W15       29.65S
-EAGLE CREEK   CLOUDY    49  44  83 W12G21    29.63F
KOKOMO +       CLOUDY    48  46  93 W16G24    29.60R
MARION +       LGT RAIN  48  46  93 W13G20    29.59F
MT COMFORT *+  CLOUDY    46  46 100 W13       29.64S
SHELBYVILLE    MOCLDY    48  43  82 SW9       29.65S
ZIONSVILLE +   CLOUDY    47  45  95 W12G17    29.63S

$$

INZ033-034-041-042-049-050-058-059-241100-
EAST CENTRAL INDIANA

CITY           SKY/WX    TMP DP  RH WIND       PRES   REMARKS
MUNCIE         RAIN      50  47  89 SW7       29.60S FOG
RICHMOND +     LGT RAIN  46  46 100 SW13      29.64S

$$

INZ060-061-067>069-081>083-085>088-241100-
SOUTHWEST INDIANA

CITY           SKY/WX    TMP DP  RH WIND       PRES   REMARKS
EVANSVILLE     MOCLDY    49  44  83 W8        29.78S
HUNTINGBURG +  MOCLDY    48  45  89 SW7       29.76R
WASHINGTON +   CLOUDY    49  43  79 W7        29.73R

$$

INZ062-063-066-070>080-084-089>092-241100-
SOUTH CENTRAL AND SOUTHEAST INDIANA

CITY           SKY/WX    TMP DP  RH WIND       PRES   REMARKS
BEDFORD +      CLOUDY    48  46  93 SW10      29.70S
BLOOMINGTON    CLOUDY    49  44  83 W9G21     29.69S
MADISON *+     CLOUDY    48  46  93 SW7       29.73S
NORTH VERNON + MOCLDY    46  46 100 SW8       29.69F
SEYMOUR +      CLOUDY    50  48  93 SW8       29.70S

$$





USA.gov is the U.S. government's official web portal to all federal, state and local government web resources and services.